Regional Weather Roundup
Issued by NWS

Home | Current Version | Previous Version | Graphics & Text | Print | Product List | Glossary On
Versions: 1 2 3 4 5 6 7 8 9 10 11 12 13 14 15 16 17 18 19 20 21 22 23 24 25 26 27 28 29 30 31 32 33 34 35 36 37 38 39 40 41 42 43 44 45 46 47 48 49 50
000
ASUS44 KMEG 152010
RWRTN
TENNESSEE HOURLY STATE WEATHER ROUNDUP
NATIONAL WEATHER SERVICE MEMPHIS TN
200 PM CST FRI DEC 15 2017

TNZ002-004-019-021-049-052-054-088>092-152100-
WEST TENNESSEE

CITY           SKY/WX    TMP DP  RH WIND       PRES   REMARKS
MEMPHIS INTL   MOSUNNY   46  26  45 W8        30.18F
NWS MEMPHIS      N/A     46 N/A N/A MISG        N/A
JACKSON        SUNNY     45  25  45 SW5       30.16F
DYERSBURG      SUNNY     46  27  47 SW9       30.16F
SOMERVILLE     SUNNY     45  27  49 SW6G13    30.16F
COVINGTON      SUNNY     46  27  46 W9        30.17S
UNION CITY     SUNNY     45  25  45 S9        30.12F
BOLIVAR        SUNNY     45  25  45 W7        30.16F
PARIS          SUNNY     43  25  49 W8G15     30.12F
HUNTINGDON     SUNNY     45  25  45 W8        30.13F
LEXINGTON      SUNNY     45  23  42 VRB5G14   30.14F
SELMER         SUNNY     43  23  45 VRB7      30.15F
SAVANNAH       SUNNY     43  25  49 W5        30.16S
$$

TNZ008-025-027-028-033-062-065-066-152100-
NORTH MIDDLE TENNESSEE

CITY           SKY/WX    TMP DP  RH WIND       PRES   REMARKS
NASHVILLE      MOSUNNY   41  21  44 SW6       30.14F
PORTLAND       SUNNY     39  23  52 W8        30.10S WCI  34
CLARKSVILLE    SUNNY     42  20  41 S8        30.11S
SMYRNA         SUNNY     39  22  50 W3        30.16S
COOKEVILLE     MOSUNNY   36  21  55 SW6       30.11R WCI  31
GALLATIN       SUNNY     41  21  45 SW7       30.15S
CROSSVILLE     SUNNY     32  19  58 NW9       30.06F WCI  24
$$

TNZ061-075-076-078-094-096-097-152100-
SOUTH MIDDLE TENNESSEE

CITY           SKY/WX    TMP DP  RH WIND       PRES   REMARKS
FAYETTEVILLE   SUNNY     36  23  60 CALM      30.14R
TULLAHOMA      MOSUNNY   36  21  55 W6        30.13R WCI  31
WINCHESTER     MOSUNNY   32  21  64 W3        30.15R
MCMINNVILLE    MOSUNNY   36  21  55 W10       30.12S WCI  28
COLUMBIA       SUNNY     41  21  45 SW6       30.13S
SHELBYVILLE    SUNNY     39  23  52 W7        30.14R WCI  34
$$

TNZ017-018-042-046-047-152100-
NORTHEAST TENNESSEE

CITY           SKY/WX    TMP DP  RH WIND       PRES   REMARKS
TRI CITIES     CLOUDY    34  24  67 W10       30.02S WCI  26
ELIZABETHTON   CLOUDY    34  25  69 W9        30.02R WCI  26
$$

TNZ012-013-036-069-073-074-152100-
CENTRAL EAST TENNESSEE

CITY           SKY/WX    TMP DP  RH WIND       PRES   REMARKS
KNOXVILLE      CLOUDY    36  26  67 SW9       30.08F WCI  29
OAK RIDGE      MOSUNNY   37  22  54 W8        30.09F WCI  31
DOWNTOWN KNOXV PTSUNNY   39  25  56 W9        30.09F WCI  33
GATLINBURG     CLOUDY    36  25  64 SW8G17    30.08S WCI  29
MORRISTOWN     CLOUDY    36  23  60 W9        30.04F WCI  29
JACKSBORO      PTSUNNY   36  21  55 VRB6G13   30.11S WCI  31
$$

TNZ083-085-099-152100-
SOUTHEAST TENNESSEE

CITY           SKY/WX    TMP DP  RH WIND       PRES   REMARKS
CHATTANOOGA    CLOUDY    37  21  52 W7        30.13F WCI  32
DAYTON         CLEAR     36  23  60 VRB3      30.12R
$$

SKY/WX REPORTED AS FAIR MEANS FEW OR NO CLOUDS BELOW
12 THOUSAND FEET.





USA.gov is the U.S. government's official web portal to all federal, state and local government web resources and services.